Weather History for KNQA - December, 2011

Change the Weather History Date:

Monday, December 5, 2011

  Actual Average Record
Temperature  
Mean Temperature 40 °F -  
Max Temperature 46 °F 54 °F 75 °F (1998)
Min Temperature 35 °F 38 °F 21 °F (2005)
Degree Days  
Heating Degree Days 24    
Moisture  
Dew Point 39 °F    
Average Humidity 97    
Maximum Humidity 100    
Minimum Humidity 93    
Precipitation  
Precipitation 0.00 in - - ()
Sea Level Pressure  
Sea Level Pressure 30.08 in    
Wind  
Wind Speed 12 mph (North)    
Max Wind Speed 20 mph    
Max Gust Speed -    
Visibility 6 miles    
Events Rain    
Averages and records for this station are not official NWS values.
T = Trace of Precipitation, MM = Missing Value Source: NWS Daily Summary

Daily Weather History Graph

Daily Weather History Graph

Search for Another Location

Airport or City:

Trip Planner

Search our weather history database for the weather conditions in past years. The results will help you decide how hot, cold, wet, or windy it might be!

Date:

Astronomy

Dec. 05, 2011 Rise Set
Actual Time 6:53 AM CST 4:46 PM CST
Civil Twilight 6:25 AM CST 5:14 PM CST
Nautical Twilight 5:53 AM CST 5:46 PM CST
Astronomical Twilight 5:22 AM CST 6:17 PM CST
Moon 1:38 PM CST (12/5) 2:22 AM CST (12/5)
Length of Visible Light 10h 49m
Length of Day
9h 53m
Waxing Gibbous, 80% of the Moon is Illuminated
Dec 5
Waxing Gibbous
Dec 10
Full
Dec 17
Last Quarter
Dec 24
New
Jan 1
First Quarter

Hourly Weather History & Observations

Time (CST) Temp. Windchill Dew Point Humidity Pressure Visibility Wind Dir Wind Speed Gust Speed Precip Events Conditions
1:15 AM 46.4 °F 40.1 °F 46.4 °F 100% 30.04 in 2.5 mi NNW 15.0 mph - N/A   Overcast
1:35 AM 46.4 °F 39.8 °F 44.6 °F 93% 30.02 in - North 16.1 mph - N/A   Overcast
1:55 AM 44.6 °F 39.7 °F 44.6 °F 100% 30.01 in - NNE 9.2 mph - N/A   Overcast
2:15 AM 44.6 °F 38.4 °F 44.6 °F 100% 29.98 in - NNE 12.7 mph - N/A   Unknown
2:35 AM 46.4 °F 40.7 °F 44.6 °F 93% 30.02 in 2.0 mi North 12.7 mph - N/A   Overcast
2:55 AM 46.4 °F 41.5 °F 46.4 °F 100% 30.05 in 4.0 mi NW 10.4 mph - N/A   Overcast
3:15 AM 44.6 °F 38.8 °F 44.6 °F 100% 30.04 in 4.0 mi NW 11.5 mph - N/A   Overcast
3:35 AM 44.6 °F 38.4 °F 44.6 °F 100% 30.06 in 4.0 mi NNW 12.7 mph - N/A   Overcast
3:55 AM 42.8 °F 35.1 °F 42.8 °F 100% 30.05 in - North 16.1 mph - N/A   Overcast
4:15 AM 42.8 °F 35.4 °F 42.8 °F 100% 30.06 in - North 15.0 mph - N/A   Overcast
4:35 AM 42.8 °F 35.1 °F 41.0 °F 93% 30.04 in - North 16.1 mph - N/A   Overcast
5:15 AM 42.8 °F 36.2 °F 42.8 °F 100% 30.06 in 2.5 mi North 12.7 mph - N/A   Overcast
5:35 AM 42.8 °F 36.2 °F 41.0 °F 93% 30.07 in 4.0 mi North 12.7 mph - N/A   Overcast
5:55 AM 41.0 °F 34.7 °F 41.0 °F 100% 30.08 in 6.0 mi North 10.4 mph - N/A   Overcast
6:15 AM 42.8 °F 37.0 °F 41.0 °F 93% 30.08 in 7.0 mi North 10.4 mph - N/A   Overcast
6:35 AM 42.8 °F 37.5 °F 41.0 °F 93% 30.04 in 5.0 mi NNE 9.2 mph - N/A   Overcast
6:55 AM 42.8 °F 40.1 °F 41.0 °F 93% 30.06 in 8.0 mi Variable 4.6 mph - N/A   Mostly Cloudy
7:15 AM 42.8 °F 38.0 °F 41.0 °F 93% 30.04 in 8.0 mi NNE 8.1 mph - N/A   Overcast
7:35 AM 42.8 °F 39.3 °F 42.8 °F 100% 30.01 in 10.0 mi Variable 5.8 mph - N/A   Overcast
7:55 AM 42.8 °F 38.0 °F 42.8 °F 100% 30.00 in 10.0 mi ENE 8.1 mph - N/A   Mostly Cloudy
8:15 AM 42.8 °F 39.3 °F 42.8 °F 100% 30.02 in 5.0 mi Variable 5.8 mph - N/A   Overcast
8:35 AM 44.6 °F 40.2 °F 42.8 °F 93% 30.01 in 4.0 mi North 8.1 mph - N/A   Overcast
8:55 AM 44.6 °F 40.7 °F 44.6 °F 100% 30.05 in 7.0 mi North 6.9 mph - N/A Rain Light Rain
9:15 AM 44.6 °F 40.7 °F 44.6 °F 100% 30.04 in 5.0 mi NNW 6.9 mph - N/A Rain Light Rain
9:35 AM 44.6 °F 40.2 °F 44.6 °F 100% 30.03 in 6.0 mi North 8.1 mph - N/A Rain Light Rain
9:55 AM 44.6 °F 39.7 °F 42.8 °F 93% 30.03 in 4.0 mi NNW 9.2 mph - N/A Rain Light Rain
10:15 AM 42.8 °F 37.0 °F 42.8 °F 100% 30.06 in 4.0 mi NNW 10.4 mph - N/A Rain Light Rain
10:35 AM 42.8 °F 35.1 °F 41.0 °F 93% 30.08 in 4.0 mi NNW 16.1 mph - N/A Rain Light Rain
10:55 AM 39.2 °F 31.2 °F 39.2 °F 100% 30.09 in 4.0 mi NNW 13.8 mph - N/A Rain Light Rain
11:15 AM 39.2 °F 29.8 °F 39.2 °F 100% 30.08 in 4.0 mi NNW 18.4 mph - N/A Rain Light Rain
11:35 AM 37.4 °F 27.8 °F 37.4 °F 100% 30.07 in 4.0 mi North 17.3 mph - N/A Rain Light Rain
11:55 AM 37.4 °F 27.5 °F 37.4 °F 100% 30.07 in 4.0 mi North 18.4 mph - N/A Rain Light Rain
12:15 PM 37.4 °F 28.2 °F 37.4 °F 100% 30.06 in 4.0 mi North 16.1 mph - N/A Rain Light Rain
12:35 PM 37.4 °F 29.8 °F 37.4 °F 100% 30.10 in 4.0 mi NNW 11.5 mph - N/A Rain Light Rain
12:55 PM 37.4 °F 27.2 °F 37.4 °F 100% 30.05 in 5.0 mi North 19.6 mph - N/A Rain Light Rain
1:15 PM 37.4 °F 30.8 °F 35.6 °F 93% 30.10 in 5.0 mi WNW 9.2 mph - N/A Rain Light Rain
1:35 PM 37.4 °F 28.2 °F 35.6 °F 93% 30.05 in 4.0 mi North 16.1 mph - N/A Rain Light Rain
1:55 PM 37.4 °F 28.5 °F 37.4 °F 100% 30.04 in 7.0 mi North 15.0 mph - N/A Rain Light Rain
2:15 PM 37.4 °F 27.8 °F 35.6 °F 93% 30.02 in 7.0 mi North 17.3 mph - N/A Rain Light Rain
2:35 PM 37.4 °F 30.8 °F 35.6 °F 93% 30.04 in 7.0 mi NNE 9.2 mph - N/A Rain Light Rain
2:55 PM 37.4 °F 32.1 °F 35.6 °F 93% 30.05 in 7.0 mi North 6.9 mph - N/A Rain Light Rain
3:15 PM 39.2 °F 32.5 °F 37.4 °F 93% 30.09 in 7.0 mi NNW 10.4 mph - N/A Rain Light Rain
3:35 PM 37.4 °F 29.8 °F 37.4 °F 100% 30.10 in 4.0 mi NNW 11.5 mph - N/A Rain Light Rain
3:55 PM 37.4 °F 29.3 °F 37.4 °F 100% 30.10 in 4.0 mi North 12.7 mph - N/A Rain Light Rain
4:15 PM 37.4 °F 30.3 °F 35.6 °F 93% 30.11 in 4.0 mi North 10.4 mph - N/A Rain Light Rain
4:35 PM 37.4 °F 28.5 °F 35.6 °F 93% 30.11 in 4.0 mi North 15.0 mph - N/A Rain Light Rain
5:15 PM 35.6 °F 27.1 °F 35.6 °F 100% 30.11 in 10.0 mi North 12.7 mph - N/A   Overcast
5:55 PM 37.4 °F 30.3 °F 35.6 °F 93% 30.12 in 10.0 mi North 10.4 mph - N/A   Overcast
6:15 PM 37.4 °F 30.3 °F 35.6 °F 93% 30.13 in 10.0 mi North 10.4 mph - N/A   Overcast
6:35 PM 37.4 °F 30.8 °F 35.6 °F 93% 30.13 in 10.0 mi North 9.2 mph - N/A   Overcast
6:55 PM 35.6 °F 27.5 °F 35.6 °F 100% 30.13 in 10.0 mi North 11.5 mph - N/A   Overcast
7:15 PM 37.4 °F 31.4 °F 35.6 °F 93% 30.14 in 6.0 mi North 8.1 mph - N/A   Overcast
7:35 PM 37.4 °F 30.8 °F 35.6 °F 93% 30.15 in 5.0 mi North 9.2 mph - N/A   Overcast
7:55 PM 37.4 °F 31.4 °F 35.6 °F 93% 30.16 in 3.0 mi NNW 8.1 mph - N/A   Overcast
8:15 PM 37.4 °F 30.8 °F 35.6 °F 93% 30.16 in 3.0 mi North 9.2 mph - N/A   Overcast
8:35 PM 37.4 °F 30.8 °F 35.6 °F 93% 30.16 in 3.0 mi North 9.2 mph - N/A   Overcast
8:55 PM 35.6 °F 28.0 °F 35.6 °F 100% 30.16 in 3.0 mi North 10.4 mph - N/A   Overcast
9:15 PM 35.6 °F 28.0 °F 35.6 °F 100% 30.15 in 3.0 mi North 10.4 mph - N/A   Overcast
9:35 PM 37.4 °F 30.8 °F 35.6 °F 93% 30.15 in 3.0 mi North 9.2 mph - N/A   Overcast
9:55 PM 37.4 °F 30.8 °F 35.6 °F 93% 30.15 in 6.0 mi North 9.2 mph - N/A   Overcast
10:15 PM 37.4 °F 30.8 °F 35.6 °F 93% 30.15 in 6.0 mi NNW 9.2 mph - N/A   Overcast
10:35 PM 35.6 °F 27.5 °F 35.6 °F 100% 30.15 in 6.0 mi North 11.5 mph - N/A   Overcast
10:55 PM 35.6 °F 27.5 °F 35.6 °F 100% 30.15 in 6.0 mi North 11.5 mph - N/A   Overcast
11:15 PM 35.6 °F 28.0 °F 33.8 °F 93% 30.16 in 6.0 mi North 10.4 mph - N/A   Overcast
11:35 PM 35.6 °F 27.5 °F 33.8 °F 93% 30.16 in 6.0 mi North 11.5 mph - N/A   Overcast
11:55 PM 35.6 °F 26.6 °F 33.8 °F 93% 30.15 in 10.0 mi NNW 13.8 mph - N/A   Overcast